Regional Weather Roundup
Issued by NWS

Home | Current Version | Previous Version | Text Only | Print | Product List | Glossary Off
Versions: 1 2 3 4 5 6 7 8 9 10 11 12 13 14 15 16 17 18 19 20 21 22 23 24 25 26 27 28 29 30 31 32 33 34 35 36 37 38 39 40 41 42 43 44 45 46 47 48 49 50

000
ASUS43 KFSD 230910
RWRSD

WEATHER ROUNDUP FOR SOUTH DAKOTA
NATIONAL WEATHER SERVICE SIOUX FALLS SD
400 AM CDT WED AUG 23 2017

NOTE: "FAIR" INDICATES FEW OR NO CLOUDS BELOW 12,000 FEET WITH NO
SIGNIFICANT WEATHER AND/OR OBSTRUCTIONS TO VISIBILITY.


SDZ001>005-009-010-012>017-231000-
NORTHWEST AND NORTH CENTRAL SOUTH DAKOTA

CITY           SKY/WX    TMP DP  RH WIND       PRES   REMARKS
BUFFALO          N/A     55  48  77 NE9       30.04S
FAITH            N/A     59  50  72 E10       30.08F
MOBRIDGE       CLEAR     54  47  77 E8        30.10S
$$

SDZ012>016-024>037-041>051-057-063-072>074-231000-
SOUTHWEST AND SOUTH CENTRAL SOUTH DAKOTA

CITY           SKY/WX    TMP DP  RH WIND       PRES   REMARKS
RAPID CTY ARPT CLEAR     53  46  77 CALM      30.07F
PIERRE         CLEAR     58  51  78 E10       30.08F
CUSTER         CLEAR     56  46  69 W6        30.20F
ELLSWORTH AFB  CLEAR     60  48  62 CALM      30.06F
PHILIP         CLEAR     56  51  84 E8        30.07S
PINE RIDGE     CLEAR     67  52  58 S23G37    30.08F
SPEARFISH      FAIR      59  48  67 SW5       30.11S
WINNER         FAIR      59  53  80 SE8       30.11F
$$

SDZ004>011-016>023-039-040-231000-
NORTHEAST SOUTH DAKOTA

CITY           SKY/WX    TMP DP  RH WIND       PRES   REMARKS
ABERDEEN       CLEAR     48  47  96 CALM      30.14S
WATERTOWN      CLEAR     50  49  96 S3        30.14S
BROOKINGS      CLEAR     52  49  89 CALM      30.16R
SISSETON         N/A     50  46  86 CALM      30.11R
$$

SDZ017-020-022-023-036>040-048>070-231000-
SOUTHEAST SOUTH DAKOTA

CITY           SKY/WX    TMP DP  RH WIND       PRES   REMARKS
SIOUX FALLS    CLEAR     52  52 100 CALM      30.15S
HURON          MOCLDY    54  52  93 CALM      30.14S
CHAMBERLAIN    CLEAR     55  54  94 E6        30.13F
MITCHELL       PTCLDY    55  52  89 S6        30.14S
YANKTON        FOG       55  54  94 CALM      30.15F VSB 1
$$

ABBREVIATIONS USED IN REMARKS
   TC - TEMPERATURE IN CELSIUS
  WCI - WIND CHILL INDEX
   HX - HEAT INDEX
  VSB - VISIBILITY





USA.gov is the U.S. government's official web portal to all federal, state and local government web resources and services.